Available Load Listing

Click here to view advanced filters and to manage your preferences
Use the boxes above the column to filter results. Click a column heading to sort by that column.
Load# Call Available Origin City State Destination City State Dlv Dt Equip
LID3789697 580-364-0189 2019-08-05 CARSON CA MIDLAND TX 2019-08-07 FD
LID3793658 847-463-5170 2019-08-07 Irving TX Prairie View TX 2019-08-07 F
LID3796617-1 910-297-0147 2019-08-09 MCCOMB MS LAREDO TX 2019-08-20 RT
LID3781266-7 866-401-3853 2019-08-12 HASLET TX LA PORTE TX 2019-08-13 F
LID3796617-3 910-297-0147 2019-08-13 MCCOMB MS LAREDO TX 2019-08-14 RT
LID3803640 727-209-3967 2019-08-14 Mazatlan CL LAREDO TX 2019-08-14 V
LID3803417 855-211-4702 2019-08-14 Tooele, UT Vinton, TX 2019-08-14 SD
LID3796617-2 910-297-0147 2019-08-14 MCCOMB MS LAREDO TX 2019-08-15 RT
LID3803032 844-797-8188 2019-08-15 LAREDO TX ESTADO DE MEXICO ME 2019-08-15 V
LID3807076 928-899-8128 2019-08-16 CHANDLER AZ SIERRA BLANCA TX 2019-08-19 RGN
LID3807748 360-588-4889 2019-08-16 MADILL OK ABILENE TX 2019-08-19 FD
LID3807091 855-494-2048 2019-08-16 Monroe LA La Porte TX 2019-08-19 F
LID3789522 855-235-1419 2019-08-19 AURORA IL Victoria TX 2019-08-21 V
LID3807768 937-827-0199 2019-08-19 New Braunfels TX Brownsville TX 2019-08-20 FD
LID3792022 844-797-8189 2019-08-19 BELOIT WI FLOWER MOUND TX 2019-08-21 V
LID3805988 727-209-3967 2019-08-19 Mazatlan CL LAREDO TX 2019-08-20 V
LID3792020 844-797-8189 2019-08-19 BELOIT WI FLOWER MOUND TX 2019-08-21 V
LID3809114 844-797-8188 2019-08-19 Seguin TX Longview TX 2019-08-20 V
LID3809392 937-827-0199 2019-08-19 New Braunfels TX Houston TX 2019-08-19 FD
LID3808765 830-629-4600 2019-08-19 SAN ANTONIO TX Garden City TX 2019-08-20 FD
LID3809242 360-588-4889 2019-08-19 WHITERIVER AZ EL PASO TX 2019-08-20 F
LID3792021 844-797-8189 2019-08-19 BELOIT WI FLOWER MOUND TX 2019-08-21 V
LID3808766 830-629-4600 2019-08-19 SAN ANTONIO TX Garden City TX 2019-08-20 FD
LID3802679 844-797-8188 2019-08-19 Missouri City TX CHURCH POINT LA 2019-08-20 V
LID3807970 770-596-2944 2019-08-19 ALAMOGORDO NM EL PASO TX 2019-08-19 V
LID3803908 866-234-1434 2019-08-19 WITTENBERG WI BRYAN TX 2019-08-22 RGN
LID3808271 847-463-5128 2019-08-19 SILVER SPRINGS NY DALLAS TX 2019-08-21 VR
LID3809471 830-629-4600 2019-08-19 HUTTO TX GALVESTON TX 2019-08-19 FD
LID3774472 855-894-3658 2019-08-19 Houston TX Pittsburg TX 2019-08-19 FD
LID3809198 360-588-4889 2019-08-19 MADILL OK CEDAR PARK TX 2019-08-20 FO
LID3809391 937-827-0199 2019-08-19 New Braunfels TX Houston TX 2019-08-19 FD
LID3801807 937-827-0197 2019-08-19 MARIETTA OH EL PASO TX 2019-08-22 V
LID3803845 855-894-3658 2019-08-19 HERMANSVILLE MI HIDALGO TX 2019-08-22 V
LID3809442 360-588-4889 2019-08-19 TULSA OK LUBBOCK TX 2019-08-20 F
LID3808297 937-827-0197 2019-08-20 HARTFORD IL TERRELL TX 2019-08-22 V
LID3807998 855-494-2049 2019-08-20 BROOMFIELD CO KATY TX 2019-08-16 V
LID3483922 800-500-4915 2019-08-20 Altavista VA Hutchins TX 2019-08-22 V
LID3807940 866-637-8600 2019-08-20 HEREFORD TX MIRA LOMA CA 2019-08-24 V
LID3790761 479-203-5639 2019-08-20 Joplin MO Laredo TX 2019-08-21 V
LID3797478 844-797-8189 2019-08-20 BELOIT WI IRVING TX 2019-08-23 V
LID3808328 844-214-4192 2019-08-20 Mishawaka IN Flower Mound TX 2019-08-22 V
LID3804010 844-797-8189 2019-08-20 BELOIT WI HOUSTON TX 2019-08-22 V
LID3809366 636-591-9021 2019-08-20 MILTON PA FT WORTH TX 2019-08-23 V
LID3809659 770-596-2944 2019-08-20 TEMPLE GA ROUND ROCK TX 2019-08-22 V
LID3803215 925-292-1059 2019-08-20 SAN LEANDRO CA CARROLLTON TX 2019-08-23
LID3809331 830-629-4600 2019-08-20 ENNIS TX SAN ANTONIO TX 2019-08-21 F
LID3809723 937-827-0197 2019-08-20 FOWLERVILLE MI SAN ANGELO TX 2019-08-22 V
LID3803174 855-494-2048 2019-08-20 Irving TX Tulsa OK 2019-08-20 F
LID3807712 830-629-4600 2019-08-20 DALLAS TX BEAUMONT TX 2019-08-20 F
LID3805989 727-209-3967 2019-08-20 LAREDO TX Morinville AB 2019-08-21 V
LID3806299 937-827-0198 2019-08-20 Dallas TX BLUFFTON IN 2019-08-22 V
LID3807943 866-637-8600 2019-08-20 HEREFORD TX MIRA LOMA CA 2019-08-24 V
LID3809287 844-619-9572 2019-08-20 FORT WORTH TX ALBANY GA 2019-08-21 V
LID3806792 727-209-3967 2019-08-20 ALBANY KY DALLAS TX 2019-08-22 RT
LID3807942 866-637-8600 2019-08-20 HEREFORD TX MIRA LOMA CA 2019-08-24 V
LID3809358 636-591-9021 2019-08-20 MILTON PA FT WORTH TX 2019-08-23 V
LID3805424 844-797-8188 2019-08-21 Missouri City TX KELLER TX 2019-08-21 V
LID3807948 847-463-5128 2019-08-21 GRAND SALINE TX AUSTIN MN 2019-08-23 VR
LID3746402 830-629-4600 2019-08-21 DALLAS TX HOUSTON TX 2019-08-21 F
LID3806868 844-797-8188 2019-08-21 Houston TX WESLACO TX 2019-08-21 V
LID3803989 866-234-1434 2019-08-21 WITTENBERG WI BRYAN TX 2019-08-24 RGN
LID3809676 844-619-9572 2019-08-21 HOUSTON TX LAREDO TX 2019-08-22 V
LID3809674 844-619-9572 2019-08-21 HOUSTON TX LAREDO TX 2019-08-22 V
LID3809752 855-494-2048 2019-08-21 ARLINGTON TX St. Augustine FL 2019-08-27 V
LID3809028 844-814-7073 2019-08-21 HUMBLE TX CONLEY GA 2019-08-23 V
LID3806864 844-797-8188 2019-08-21 Missouri City TX WESLACO TX 2019-08-21 V
LID3809620 980-245-8294 2019-08-21 NAPERVILLE IL DALHART TX 2019-08-23 VR
LID3802055 830-629-4600 2019-08-21 Dallas TX OKLAHOMA CITY OK 2019-08-22 F
LID3808319 888-215-6538 2019-08-21 SOMERVILLE TX CALDWELL TX 2019-08-21 FH
LID3809092 844-797-8188 2019-08-21 Houston TX Kansas City KS 2019-08-23 V
LID3809722 937-827-0197 2019-08-21 FOWLERVILLE MI AUSTIN TX 2019-08-23 V
LID3763173 830-629-4600 2019-08-21 DALLAS TX HOUSTON TX 2019-08-21 F
LID3682351 830-629-4600 2019-08-21 ENNIS TX KATY TX 2019-08-21 F
LID3809655 844-619-9572 2019-08-21 HOUSTON TX LAREDO TX 2019-08-22 V
LID3809857 855-494-2049 2019-08-21 ATHENS TX COOKEVILLE TN 2019-08-19 V
LID3807734 847-463-5128 2019-08-21 KANSAS CITY MO CARROLLTON TX 2019-08-22 VR
LID3808131 844-797-8189 2019-08-21 BELOIT WI FORT WORTH TX 2019-08-23 V
LID3809724 937-827-0197 2019-08-21 FOWLERVILLE MI HOUSTON TX 2019-08-23 V
LID3806490 830-629-4600 2019-08-21 HOUSTON TX Marysville WA 2019-08-26 FD
LID3790803 479-203-5639 2019-08-21 Joplin MO Laredo TX 2019-08-22 V
LID3809654 844-619-9572 2019-08-21 HOUSTON TX LAREDO TX 2019-08-22 V
LID3793288 830-629-4600 2019-08-22 DALLAS TX TYLER TX 2019-08-22 F
LID3807470 844-797-8188 2019-08-22 Missouri City TX Weslaco TX 2019-08-22 V
LID3800622 830-629-4600 2019-08-22 CORSICANA TX Houston TX 2019-08-23 FD
LID3800617 830-629-4600 2019-08-22 CORSICANA TX Houston TX 2019-08-23 FD
LID3806836 855-494-2048 2019-08-22 Irving TX Tulsa OK 2019-08-23 F
LID3808419 937-827-0198 2019-08-22 ORANGE TX COTTONDALE AL 2019-08-23 V
LID3804776 844-797-8188 2019-08-22 Missouri City TX JONESVILLE LA 2019-08-23 V
LID3790799 479-203-5639 2019-08-22 Joplin MO Laredo TX 2019-08-23 V
LID3799647 844-797-8188 2019-08-22 Seguin TX Longview TX 2019-08-22 V
LID3807944 866-637-8600 2019-08-22 HEREFORD TX MIRA LOMA CA 2019-08-24 V
LID3805862 844-619-9572 2019-08-22 LAREDO TX SOUTH WINDSOR CT 2019-08-29 V
LID3806995 830-629-4600 2019-08-22 Corsicana TX Houston TX 2019-08-23 FD
LID3809090 844-797-8188 2019-08-22 Dallas TX Lubbock TX 2019-08-23 V
LID3782633 844-797-8188 2019-08-22 Missouri City TX NATCHITOCHES LA 2019-08-23 V
LID3801374 844-797-8188 2019-08-22 Missouri City TX Fort Worth TX 2019-08-22 V
LID3790785 479-203-5639 2019-08-22 Joplin MO Laredo TX 2019-08-23 V
LID3807412 830-629-4600 2019-08-22 DALLAS TX DALLAS TX 2019-08-22 F
LID3806966 844-214-4192 2019-08-23 Balch Springs TX West Seneca NY 2019-08-26 F
LID3809381 636-591-9021 2019-08-23 MILTON PA FT WORTH TX 2019-08-26 V
LID3808130 844-797-8189 2019-08-23 BELOIT WI TEMPLE TX 2019-08-27 V
LID3807705 855-494-2049 2019-08-23 KATY TX COOKEVILLE TN 2019-08-26 V
LID3804154 636-591-9021 2019-08-23 Bedford Park IL HOUSTON TX 2019-08-26 V
LID3790788 479-203-5639 2019-08-23 Joplin MO Laredo TX 2019-08-26 V
LID3807483 844-797-8188 2019-08-23 Missouri City TX Keller TX 2019-08-23 V
LID3809104 844-797-8188 2019-08-23 Missouri City TX Weslaco TX 2019-08-23 V
LID3809119 844-797-8188 2019-08-23 Dallas TX Lubbock TX 2019-08-24 V
LID3807481 844-797-8188 2019-08-23 Missouri City TX Keller TX 2019-08-23 V
LID3801404 830-629-4600 2019-08-23 DALLAS TX TYLER TX 2019-08-23 F
LID3799521 844-797-8189 2019-08-23 BELOIT WI LAREDO TX 2019-08-26 V
LID3805854 830-629-4600 2019-08-23 Corsicana TX Houston TX 2019-08-26 FD
LID3807405 830-629-4600 2019-08-23 Ennis TX DALLAS TX 2019-08-23 F
LID3804337 844-797-8188 2019-08-23 LODI CA DALLAS TX 2019-08-26 V
LID3809566 855-235-1419 2019-08-23 AURORA IL Victoria TX 2019-08-26 V
LID3799895 866-637-8600 2019-08-23 HEREFORD TX MIRA LOMA CA 2019-08-26 V
LID3776396 830-629-4600 2019-08-23 Ennis TX DALLAS TX 2019-08-23 F
LID3790802 479-203-5639 2019-08-23 Joplin MO Laredo TX 2019-08-26 V
LID3805858 830-629-4600 2019-08-23 Corsicana TX Houston TX 2019-08-26 FD
LID3801417 830-629-4600 2019-08-23 Ennis TX TYLER TX 2019-08-23 F
LID3799896 866-637-8600 2019-08-23 HEREFORD TX MIRA LOMA CA 2019-08-25 V
LID3808515 844-214-4192 2019-08-23 Mishawaka IN Flower Mound TX 2019-08-26 V
LID3805448 855-894-3658 2019-08-23 Jackson MI Arlington TX 2019-08-26 V
LID3801392 844-797-8188 2019-08-24 Seguin TX Longview TX 2019-08-25 V
LID3807474 844-797-8188 2019-08-24 Missouri City TX Keller TX 2019-08-24 V
LID3809235 844-797-8190 2019-08-24 Houston TX Dillon SC 2019-08-25 VM
LID3809396 844-797-8188 2019-08-24 Dallas TX LUBBOCK TX 2019-08-25 V
LID3809383 844-797-8188 2019-08-25 Dallas TX LUBBOCK TX 2019-08-26 V
LID3807974 844-797-8188 2019-08-26 FORT WORTH TX HOUSTON TX 2019-08-26 RT
LID3790809 479-203-5639 2019-08-26 Joplin MO El Paso TX 2019-08-28 V
LID3808409 479-203-5639 2019-08-26 LECOMPTON KS Fort Worth TX 2019-08-26 V
LID3809283 855-211-4702 2019-08-26 LAREDO TX San Luis AZ 2019-08-28 V
LID3809288 855-211-4702 2019-08-26 LAREDO TX San Luis AZ 2019-08-28 V
LID3780730 844-373-5795 2019-08-26 DALLAS TX GROVEPORT OH 2019-08-29 V
LID3809272 855-211-4702 2019-08-26 LAREDO TX San Luis AZ 2019-08-28 V
LID3803496 888-285-4514 2019-08-26 FORT RECOVERY OH NEW BRAUNFELS TX 2019-08-28 V
LID3807418 830-629-4600 2019-08-26 Ennis TX DALLAS TX 2019-08-26 F
LID3805604 844-797-8189 2019-08-26 BELOIT WI IRVING TX 2019-08-29 V
LID3796564 844-214-4192 2019-08-26 Plymouth WI Houston TX 2019-08-28 RT
LID3769984 855-494-2048 2019-08-26 DALLAS TX FRANKFORT IN 2019-09-02 V
LID3809693 800-407-9261 2019-08-26 HEARNE TX PINE BLUFF AR 2019-08-27 SD
LID3805745 855-494-2048 2019-08-26 DALLAS TX HARLINGEN TX 2019-08-27 F
LID3804736 844-619-9572 2019-08-26 BOLINGBROOK IL DENTON TX 2019-08-29 V
LID3809768 855-494-2048 2019-08-26 ARLINGTON TX St. Augustine FL 2019-08-28 V
LID3808129 830-629-4600 2019-08-26 HOUSTON TX Addison TX 2019-08-27 FD
LID3809689 855-494-2048 2019-08-26 Ennis TX Bethel Heights AR 2019-08-27 F
LID3781935 844-373-5795 2019-08-27 DALLAS TX GROVEPORT OH 2019-08-30 V
LID3806997 844-619-9572 2019-08-27 BOLINGBROOK IL DENTON TX 2019-08-30 V
LID3790774 479-203-5639 2019-08-27 Joplin MO El Paso TX 2019-08-29 V
LID3800609 830-629-4600 2019-08-27 CORSICANA TX Houston TX 2019-08-28 FD
LID3807419 830-629-4600 2019-08-27 Ennis TX DALLAS TX 2019-08-27 F
LID3800619 830-629-4600 2019-08-27 CORSICANA TX Houston TX 2019-08-28 FD
LID3809116 844-797-8188 2019-08-27 Houston TX Coppell TX 2019-08-28 V
LID3806811 855-494-2049 2019-08-27 PORT ARTHUR TX WEST ORANGE TX 2019-08-27 F
LID3802834 888-285-4514 2019-08-27 CORNING AR EL PASO TX 2019-08-29 V
LID3807423 830-629-4600 2019-08-27 Ennis TX DALLAS TX 2019-08-27 F
LID3807421 830-629-4600 2019-08-27 Ennis TX DALLAS TX 2019-08-27 F
LID3807424 830-629-4600 2019-08-27 DALLAS TX DALLAS TX 2019-08-27 F
LID3799875 844-619-9572 2019-08-27 SOUTH BRUNSWICK NJ GARLAND TX 2019-08-27 V
LID3807420 830-629-4600 2019-08-27 Ennis TX DALLAS TX 2019-08-27 F
LID3807425 830-629-4600 2019-08-28 DALLAS TX DALLAS TX 2019-08-28 F
LID3790805 479-203-5639 2019-08-28 Joplin MO El Paso TX 2019-08-30 V
LID3807430 830-629-4600 2019-08-28 ENNIS TX DALLAS TX 2019-08-28 F
LID3802833 888-285-4514 2019-08-28 CORNING AR EL PASO TX 2019-08-30 V
LID3809843 830-629-4600 2019-08-28 Dallas TX HOUSTON TX 2019-08-28 FD
LID3784327 844-373-5795 2019-08-28 DALLAS TX GROVEPORT OH 2019-08-31 V
LID3803974 479-203-5850 2019-08-28 Houston TX MANTENO IL 2019-08-28 RT
LID3807422 830-629-4600 2019-08-28 Ennis TX DALLAS TX 2019-08-28 F
LID3790806 479-203-5639 2019-08-28 Joplin MO Laredo TX 2019-08-29 V
LID3802976 855-494-2048 2019-08-28 ARLINGTON TX Birmingham AL 2019-08-30 V
LID3807431 830-629-4600 2019-08-28 ENNIS TX DALLAS TX 2019-08-28 F
LID3807428 830-629-4600 2019-08-28 DALLAS TX DALLAS TX 2019-08-28 F
LID3808738 888-285-4514 2019-08-28 PARAGOULD AR MESQUITE TX 2019-08-29 V
LID3807429 830-629-4600 2019-08-28 DALLAS TX DALLAS TX 2019-08-28 F
LID3798587 844-797-8189 2019-08-29 LA PORTE TX HOUSTON TX 2019-08-30 BK
LID3790792 479-203-5639 2019-08-29 Joplin MO El Paso TX 2019-09-02 V
LID3801832 888-285-4514 2019-08-29 JOPLIN MO MESQUITE TX 2019-08-30 V
LID3804750 844-797-8188 2019-08-29 Missouri City TX JONESVILLE LA 2019-08-30 V
LID3809627 844-797-8188 2019-08-29 Seguin TX Longview TX 2019-08-30 V
LID3786509 844-373-5795 2019-08-29 DALLAS TX GROVEPORT OH 2019-09-01 V
LID3807427 830-629-4600 2019-08-29 DALLAS TX DALLAS TX 2019-08-29 F
LID3809115 844-797-8188 2019-08-29 Seguin TX Longview TX 2019-08-30 V
LID3790786 479-203-5639 2019-08-29 Joplin MO Laredo TX 2019-08-30 V
LID3788056 844-373-5795 2019-08-30 DALLAS TX GROVEPORT OH 2019-09-02 V
LID3790797 479-203-5639 2019-08-30 Joplin MO El Paso TX 2019-09-02 V
LID3803518 830-629-4600 2019-08-30 Corsicana TX Houston TX 2019-08-30 FD
LID3781957 844-373-5795 2019-08-30 DALLAS TX GROVEPORT OH 2019-09-02 V
LID3803520 830-629-4600 2019-08-30 Corsicana TX Houston TX 2019-08-30 FD
LID3802835 888-285-4514 2019-08-30 CORNING AR EL PASO TX 2019-09-02 V
LID3809854 855-494-2048 2019-08-30 ARLINGTON TX Orlando FL 2019-09-03 V
LID3790801 479-203-5639 2019-08-30 Joplin MO El Paso TX 2019-09-02 V
LID3805748 855-494-2048 2019-08-30 DALLAS TX HARLINGEN TX 2019-09-02 F
LID3801834 888-285-4514 2019-08-30 JOPLIN MO MESQUITE TX 2019-08-31 V
LID3789533 844-797-8188 2019-09-01 Missouri City TX NATCHITOCHES LA 2019-09-02 V
BN9232997 8558407891 2019-09-01 CLEBURNE TX DEER PARK NY 2019-08-31 V
LID3802933 844-797-8188 2019-09-01 Missouri City TX Harahan LA 2019-09-02 V
LID3800575 844-797-8189 2019-09-02 LA PORTE TX HOUSTON TX 2019-09-03 BK
LID3793124 844-373-5795 2019-09-03 DALLAS TX GROVEPORT OH 2019-09-06 V
LID3783879 830-629-4600 2019-09-03 ATLANTA GA STAFFORD TX 2019-09-03 F
LID3776545 937-827-0197 2019-09-03 MISSOURI CITY TX COLUMBUS OH 2019-09-05 V
LID3784358 830-629-4600 2019-09-03 ENNIS TX STAFFORD TX 2019-09-03 F
LID3809105 844-797-8188 2019-09-04 Missouri City TX Marrero LA 2019-09-05 V
LID3809103 844-797-8188 2019-09-04 Missouri City TX Harahan LA 2019-09-05 V
LID3703540 855-494-2048 2019-09-04 ENNIS TX HOUSTON TX 2019-09-04 F
LID3798390 844-373-5795 2019-09-04 DALLAS TX GROVEPORT OH 2019-09-07 V
LID3798433 844-373-5795 2019-09-05 DALLAS TX GROVEPORT OH 2019-09-08 V
LID3804761 844-797-8188 2019-09-05 Missouri City TX JONESVILLE LA 2019-09-06 V
LID3809346 844-797-8188 2019-09-06 JOPLIN MO DALLAS TX 2019-09-09 V
LID3798445 844-373-5795 2019-09-06 DALLAS TX GROVEPORT OH 2019-09-09 V
LID3739891 830-629-4600 2019-09-06 Ennis TX DALLAS TX 2019-09-06 F
LID3763239 830-629-4600 2019-09-09 Ennis TX DALLAS TX 2019-09-09 F
LID3800564 844-373-5795 2019-09-09 DALLAS TX GROVEPORT OH 2019-09-12 V
LID3763240 830-629-4600 2019-09-09 Ennis TX DALLAS TX 2019-09-09 F
LID3804585 844-373-5795 2019-09-11 DALLAS TX GROVEPORT OH 2019-09-14 V
LID3798973 937-827-0197 2019-09-11 MISSOURI CITY TX COLUMBUS OH 2019-09-13 V
LID3712041 830-629-4600 2019-09-12 Ennis TX MCKINNEY TX 2019-09-12 F
LID3808334 844-373-5795 2019-09-13 DALLAS TX GROVEPORT OH 2019-09-16 V
LID3806195 937-827-0197 2019-09-16 MISSOURI CITY TX COLUMBUS OH 2019-09-18 V
LID3703539 855-494-2048 2019-09-19 ENNIS TX HOUSTON TX 2019-09-19 F
LID3739893 830-629-4600 2019-11-07 Ennis TX DALLAS TX 2019-11-07 F